Time,TemperatureF,DewpointF,PressureIn,WindDirection,WindDirectionDegrees,WindSpeedMPH,WindSpeedGustMPH,Humidity,HourlyPrecipIn,Conditions,Clouds,dailyrainin,SolarRadiationWatts/m^2,SoftwareType,DateUTC
2013-02-09 00:03:00,46.6,39.1,29.71,NW,315,0.0,0.0,75,0.00,CLR,,0.00,0.0,WeatherDisplay:10.37,2013-02-08 22:03:00,
2013-02-09 00:08:00,46.6,39.1,29.71,WSW,248,0.0,0.0,75,0.00,CLR,,0.00,0.0,WeatherDisplay:10.37,2013-02-08 22:08:00,
2013-02-09 00:13:00,46.4,38.9,29.71,WSW,248,1.6,0.0,75,0.00,CLR,,0.00,0.0,WeatherDisplay:10.37,2013-02-08 22:13:00,
2013-02-09 00:18:00,46.2,38.7,29.72,South,180,2.3,2.3,75,0.00,CLR,,0.00,0.0,WeatherDisplay:10.37,2013-02-08 22:18:00,
2013-02-09 00:23:00,46.2,38.7,29.71,WNW,292,0.0,0.0,75,0.00,CLR,,0.00,0.0,WeatherDisplay:10.37,2013-02-08 22:23:00,
2013-02-09 00:28:00,46.2,38.7,29.72,West,270,0.0,0.0,75,0.00,CLR,,0.00,0.0,WeatherDisplay:10.37,2013-02-08 22:28:00,
2013-02-09 00:33:00,46.2,38.7,29.71,WSW,248,0.0,0.0,75,0.00,CLR,,0.00,0.0,WeatherDisplay:10.37,2013-02-08 22:33:00,
2013-02-09 00:38:00,46.2,38.7,29.72,WSW,248,0.0,0.0,75,0.00,CLR,,0.00,0.0,WeatherDisplay:10.37,2013-02-08 22:38:00,
2013-02-09 00:43:00,46.0,38.6,29.72,WSW,248,0.0,0.0,75,0.00,CLR,,0.00,0.0,WeatherDisplay:10.37,2013-02-08 22:43:00,
2013-02-09 00:48:00,46.0,38.6,29.72,WSW,248,0.0,0.0,75,0.00,CLR,,0.00,0.0,WeatherDisplay:10.37,2013-02-08 22:48:00,
2013-02-09 00:53:00,45.7,38.5,29.72,WNW,292,0.0,0.0,76,0.00,CLR,,0.00,0.0,WeatherDisplay:10.37,2013-02-08 22:53:00,
2013-02-09 00:58:00,45.7,38.5,29.72,North,0,0.0,0.0,76,0.00,CLR,,0.00,0.0,WeatherDisplay:10.37,2013-02-08 22:58:00,
2013-02-09 01:03:00,45.7,38.5,29.72,North,0,0.0,0.0,76,0.00,FEW,,0.00,0.0,WeatherDisplay:10.37,2013-02-08 23:03:00,
2013-02-09 01:08:00,45.7,38.5,29.72,ENE,68,1.1,1.1,76,0.00,FEW,,0.00,0.0,WeatherDisplay:10.37,2013-02-08 23:08:00,
2013-02-09 01:13:00,45.7,38.5,29.73,ENE,68,0.0,0.0,76,0.00,FEW,,0.00,0.0,WeatherDisplay:10.37,2013-02-08 23:13:00,
2013-02-09 01:18:00,45.7,38.5,29.72,ENE,68,2.3,2.3,76,0.00,FEW,,0.00,0.0,WeatherDisplay:10.37,2013-02-08 23:18:00,
2013-02-09 01:23:00,45.5,38.4,29.72,NNE,22,0.0,0.0,76,0.00,FEW,,0.00,0.0,WeatherDisplay:10.37,2013-02-08 23:23:00,
2013-02-09 01:28:00,45.3,38.5,29.72,North,0,2.3,2.3,77,0.00,FEW,,0.00,0.0,WeatherDisplay:10.37,2013-02-08 23:28:00,
2013-02-09 01:33:00,45.1,38.4,29.72,North,0,0.0,0.0,77,0.00,FEW,,0.00,0.0,WeatherDisplay:10.37,2013-02-08 23:33:00,
2013-02-09 01:38:00,45.1,38.4,29.72,NNW,338,0.0,0.0,77,0.00,FEW,,0.00,0.0,WeatherDisplay:10.37,2013-02-08 23:38:00,
2013-02-09 01:43:00,45.1,38.4,29.72,North,0,0.0,0.0,77,0.00,FEW,,0.00,0.0,WeatherDisplay:10.37,2013-02-08 23:43:00,
2013-02-09 01:48:00,45.1,38.4,29.72,ENE,68,2.3,2.3,77,0.00,FEW,,0.00,0.0,WeatherDisplay:10.37,2013-02-08 23:48:00,
2013-02-09 01:53:00,44.8,38.0,29.72,ENE,68,1.1,1.1,77,0.00,FEW,,0.00,0.0,WeatherDisplay:10.37,2013-02-08 23:53:00,
2013-02-09 01:58:00,44.4,37.7,29.72,ENE,68,2.3,2.3,77,0.00,FEW,,0.00,0.0,WeatherDisplay:10.37,2013-02-08 23:58:00,
2013-02-09 02:03:00,44.2,37.5,29.72,North,0,0.0,0.0,77,0.00,CLR,,0.00,0.0,WeatherDisplay:10.37,2013-02-09 00:03:00,
2013-02-09 02:08:00,44.1,37.3,29.72,NNW,338,0.0,0.0,77,0.00,CLR,,0.00,0.0,WeatherDisplay:10.37,2013-02-09 00:08:00,
2013-02-09 02:13:00,43.9,37.1,29.73,North,0,0.0,0.0,77,0.00,CLR,,0.00,0.0,WeatherDisplay:10.37,2013-02-09 00:13:00,
2013-02-09 02:18:00,43.7,37.0,29.73,NNW,338,0.0,0.0,77,0.00,CLR,,0.00,0.0,WeatherDisplay:10.37,2013-02-09 00:18:00,
2013-02-09 02:23:00,43.9,37.1,29.73,NW,315,1.1,1.1,77,0.00,CLR,,0.00,0.0,WeatherDisplay:10.37,2013-02-09 00:23:00,
2013-02-09 02:28:00,44.1,37.6,29.74,NW,315,0.0,0.0,78,0.00,CLR,,0.00,0.0,WeatherDisplay:10.37,2013-02-09 00:28:00,
2013-02-09 02:33:00,44.2,37.8,29.73,NW,315,0.0,0.0,78,0.00,CLR,,0.00,0.0,WeatherDisplay:10.37,2013-02-09 00:33:00,
2013-02-09 02:38:00,44.2,37.8,29.73,NW,315,0.0,0.0,78,0.00,CLR,,0.00,0.0,WeatherDisplay:10.37,2013-02-09 00:38:00,
2013-02-09 02:43:00,44.4,38.0,29.73,NW,315,0.0,0.0,78,0.00,CLR,,0.00,0.0,WeatherDisplay:10.37,2013-02-09 00:43:00,
2013-02-09 02:48:00,44.4,38.0,29.74,NW,315,0.0,0.0,78,0.00,CLR,,0.00,0.0,WeatherDisplay:10.37,2013-02-09 00:48:00,
2013-02-09 02:53:00,44.4,37.7,29.74,NW,315,0.0,0.0,77,0.00,CLR,,0.00,0.0,WeatherDisplay:10.37,2013-02-09 00:53:00,
2013-02-09 02:58:00,44.4,37.7,29.74,NNW,338,0.0,0.0,77,0.00,CLR,,0.00,0.0,WeatherDisplay:10.37,2013-02-09 00:58:00,
2013-02-09 03:03:00,44.4,37.7,29.74,ENE,68,0.0,0.0,77,0.00,CLR,,0.00,0.0,WeatherDisplay:10.37,2013-02-09 01:03:00,
2013-02-09 03:08:00,44.4,37.7,29.74,ESE,112,1.1,1.1,77,0.00,CLR,,0.00,0.0,WeatherDisplay:10.37,2013-02-09 01:08:00,
2013-02-09 03:13:00,44.1,37.3,29.74,ENE,68,0.0,0.0,77,0.00,CLR,,0.00,0.0,WeatherDisplay:10.37,2013-02-09 01:13:00,
2013-02-09 03:18:00,43.5,36.8,29.74,NE,45,0.0,0.0,77,0.00,CLR,,0.00,0.0,WeatherDisplay:10.37,2013-02-09 01:18:00,
2013-02-09 03:23:00,43.5,36.8,29.74,NNW,338,0.0,0.0,77,0.00,CLR,,0.00,0.0,WeatherDisplay:10.37,2013-02-09 01:23:00,
2013-02-09 03:28:00,43.5,36.8,29.75,North,0,0.0,0.0,77,0.00,CLR,,0.00,0.0,WeatherDisplay:10.37,2013-02-09 01:28:00,
2013-02-09 03:33:00,43.5,37.1,29.75,North,0,0.0,0.0,78,0.00,CLR,,0.00,0.0,WeatherDisplay:10.37,2013-02-09 01:33:00,
2013-02-09 03:38:00,43.5,37.1,29.75,ENE,68,0.0,0.0,78,0.00,CLR,,0.00,0.0,WeatherDisplay:10.37,2013-02-09 01:38:00,
2013-02-09 03:43:00,43.5,37.1,29.74,ESE,112,0.0,0.0,78,0.00,CLR,,0.00,0.0,WeatherDisplay:10.37,2013-02-09 01:43:00,
2013-02-09 03:48:00,43.3,36.9,29.75,East,90,0.0,0.0,78,0.00,CLR,,0.00,0.0,WeatherDisplay:10.37,2013-02-09 01:48:00,
2013-02-09 03:53:00,43.3,36.9,29.74,ENE,68,0.0,0.0,78,0.00,CLR,,0.00,0.0,WeatherDisplay:10.37,2013-02-09 01:53:00,
2013-02-09 03:58:00,43.3,36.9,29.74,NE,45,0.0,0.0,78,0.00,CLR,,0.00,0.0,WeatherDisplay:10.37,2013-02-09 01:58:00,
2013-02-09 04:03:00,43.3,36.9,29.75,ENE,68,0.0,0.0,78,0.00,CLR,,0.00,0.0,WeatherDisplay:10.37,2013-02-09 02:03:00,
2013-02-09 04:08:00,43.3,36.9,29.75,ENE,68,0.0,0.0,78,0.00,CLR,,0.00,0.0,WeatherDisplay:10.37,2013-02-09 02:08:00,
2013-02-09 04:13:00,43.3,36.9,29.75,North,0,1.1,1.1,78,0.00,CLR,,0.00,0.0,WeatherDisplay:10.37,2013-02-09 02:13:00,
2013-02-09 04:18:00,43.3,37.3,29.75,NNE,22,0.0,0.0,79,0.00,CLR,,0.00,0.0,WeatherDisplay:10.37,2013-02-09 02:18:00,
2013-02-09 04:23:00,43.2,37.1,29.74,ENE,68,0.0,0.0,79,0.00,CLR,,0.00,0.0,WeatherDisplay:10.37,2013-02-09 02:23:00,
2013-02-09 04:28:00,43.3,37.3,29.75,ENE,68,0.0,0.0,79,0.00,CLR,,0.00,0.0,WeatherDisplay:10.37,2013-02-09 02:28:00,
2013-02-09 04:33:00,43.3,37.3,29.75,ENE,68,0.0,0.0,79,0.00,CLR,,0.00,0.0,WeatherDisplay:10.37,2013-02-09 02:33:00,
2013-02-09 04:38:00,43.3,37.3,29.75,ENE,68,0.0,0.0,79,0.00,CLR,,0.00,0.0,WeatherDisplay:10.37,2013-02-09 02:38:00,
2013-02-09 04:43:00,43.3,37.3,29.75,ENE,68,1.1,0.0,79,0.00,CLR,,0.00,0.0,WeatherDisplay:10.37,2013-02-09 02:43:00,
2013-02-09 04:48:00,43.3,37.3,29.74,ENE,68,1.1,1.1,79,0.00,CLR,,0.00,0.0,WeatherDisplay:10.37,2013-02-09 02:48:00,
2013-02-09 04:53:00,43.2,37.1,29.75,NE,45,2.3,2.3,79,0.00,CLR,,0.00,0.0,WeatherDisplay:10.37,2013-02-09 02:53:00,
2013-02-09 04:58:00,42.6,36.6,29.75,ENE,68,2.3,2.3,79,0.00,CLR,,0.00,0.0,WeatherDisplay:10.37,2013-02-09 02:58:00,
2013-02-09 05:03:00,42.6,36.6,29.75,NNE,22,2.3,2.3,79,0.00,FEW,,0.00,0.0,WeatherDisplay:10.37,2013-02-09 03:03:00,
2013-02-09 05:08:00,42.4,36.4,29.75,North,0,0.0,0.0,79,0.00,FEW,,0.00,0.0,WeatherDisplay:10.37,2013-02-09 03:08:00,
2013-02-09 05:13:00,42.4,36.4,29.75,NNE,22,3.5,3.5,79,0.00,FEW,,0.00,0.0,WeatherDisplay:10.37,2013-02-09 03:13:00,
2013-02-09 05:18:00,42.4,36.4,29.75,NNW,338,2.3,2.3,79,0.00,FEW,,0.00,0.0,WeatherDisplay:10.37,2013-02-09 03:18:00,
2013-02-09 05:23:00,42.6,36.6,29.75,NNW,338,3.5,3.5,79,0.00,FEW,,0.00,0.0,WeatherDisplay:10.37,2013-02-09 03:23:00,
2013-02-09 05:28:00,42.8,37.1,29.75,NNW,338,2.3,2.3,80,0.00,FEW,,0.00,0.0,WeatherDisplay:10.37,2013-02-09 03:28:00,
2013-02-09 05:33:00,43.0,37.2,29.75,East,90,0.0,0.0,80,0.00,FEW,,0.00,0.0,WeatherDisplay:10.37,2013-02-09 03:33:00,
2013-02-09 05:38:00,43.0,37.2,29.75,ENE,68,0.0,0.0,80,0.00,FEW,,0.00,0.0,WeatherDisplay:10.37,2013-02-09 03:38:00,
2013-02-09 05:43:00,43.2,37.1,29.75,SE,135,0.0,0.0,79,0.00,FEW,,0.00,0.0,WeatherDisplay:10.37,2013-02-09 03:43:00,
2013-02-09 05:48:00,43.2,37.1,29.76,NE,45,0.0,0.0,79,0.00,FEW,,0.00,0.0,WeatherDisplay:10.37,2013-02-09 03:48:00,
2013-02-09 05:53:00,43.0,36.9,29.76,NE,45,0.0,0.2,79,0.00,FEW,,0.00,0.0,WeatherDisplay:10.37,2013-02-09 03:53:00,
2013-02-09 05:58:00,43.0,36.9,29.75,NNW,338,2.3,2.3,79,0.00,FEW,,0.00,0.0,WeatherDisplay:10.37,2013-02-09 03:58:00,
2013-02-09 06:03:00,42.6,36.6,29.75,North,0,2.3,2.3,79,0.00,FEW,,0.00,0.0,WeatherDisplay:10.37,2013-02-09 04:03:00,
2013-02-09 06:08:00,42.6,36.6,29.75,North,0,2.3,2.3,79,0.00,FEW,,0.00,0.0,WeatherDisplay:10.37,2013-02-09 04:08:00,
2013-02-09 06:13:00,43.0,37.2,29.76,North,0,1.1,1.1,80,0.00,FEW,,0.00,0.0,WeatherDisplay:10.37,2013-02-09 04:13:00,
2013-02-09 06:18:00,43.3,37.6,29.76,NNE,22,0.0,0.0,80,0.00,FEW,,0.00,0.0,WeatherDisplay:10.37,2013-02-09 04:18:00,
2013-02-09 06:23:00,43.3,37.3,29.76,NE,45,0.0,0.0,79,0.00,FEW,,0.00,0.0,WeatherDisplay:10.37,2013-02-09 04:23:00,
2013-02-09 06:28:00,43.2,37.1,29.76,North,0,0.0,0.0,79,0.00,FEW,,0.00,0.0,WeatherDisplay:10.37,2013-02-09 04:28:00,
2013-02-09 06:33:00,43.2,37.4,29.76,NNE,22,0.0,0.0,80,0.00,FEW,,0.00,0.0,WeatherDisplay:10.37,2013-02-09 04:33:00,
2013-02-09 06:38:00,43.3,37.6,29.77,North,0,0.0,0.0,80,0.00,FEW,,0.00,0.0,WeatherDisplay:10.37,2013-02-09 04:38:00,
2013-02-09 06:44:00,43.3,37.6,29.76,NE,45,0.0,0.0,80,0.00,FEW,,0.00,0.0,WeatherDisplay:10.37,2013-02-09 04:44:00,
2013-02-09 06:49:00,43.3,37.6,29.77,ENE,68,0.0,0.0,80,0.00,FEW,,0.00,0.0,WeatherDisplay:10.37,2013-02-09 04:49:00,
2013-02-09 06:54:00,43.2,37.4,29.76,NNE,22,0.0,0.2,80,0.00,FEW,,0.00,0.0,WeatherDisplay:10.37,2013-02-09 04:54:00,
2013-02-09 06:59:00,43.2,37.4,29.76,NNE,22,1.1,1.1,80,0.00,FEW,,0.00,0.0,WeatherDisplay:10.37,2013-02-09 04:59:00,
2013-02-09 07:00:00,43.2,37.4,29.76,NE,45,2.3,2.3,80,0.00,FEW,,0.00,0.0,WeatherDisplay:10.37,2013-02-09 05:00:00,
2013-02-09 07:05:00,43.2,37.4,29.77,ENE,68,0.0,0.0,80,0.00,FEW,,0.00,0.0,WeatherDisplay:10.37,2013-02-09 05:05:00,
2013-02-09 07:10:00,43.2,37.1,29.77,NNE,22,2.3,2.3,79,0.00,FEW,,0.00,0.0,WeatherDisplay:10.37,2013-02-09 05:10:00,
2013-02-09 07:15:00,43.3,37.3,29.77,ENE,68,0.0,0.0,79,0.00,FEW,,0.00,0.0,WeatherDisplay:10.37,2013-02-09 05:15:00,
2013-02-09 07:20:00,43.3,37.3,29.77,ENE,68,0.0,0.0,79,0.00,FEW,,0.00,0.0,WeatherDisplay:10.37,2013-02-09 05:20:00,
2013-02-09 07:25:00,43.3,37.3,29.77,ENE,68,0.0,0.0,79,0.00,FEW,,0.00,0.0,WeatherDisplay:10.37,2013-02-09 05:25:00,
2013-02-09 07:30:00,43.2,37.1,29.78,ENE,68,0.0,0.0,79,0.00,FEW,,0.00,0.0,WeatherDisplay:10.37,2013-02-09 05:30:00,
2013-02-09 07:35:00,43.2,37.1,29.78,North,0,1.3,1.3,79,0.00,FEW,,0.00,0.0,WeatherDisplay:10.37,2013-02-09 05:35:00,
2013-02-09 07:40:00,43.2,37.1,29.78,NE,45,0.0,0.0,79,0.00,FEW,,0.00,0.0,WeatherDisplay:10.37,2013-02-09 05:40:00,
2013-02-09 07:45:00,43.3,37.3,29.78,NW,315,0.0,0.0,79,0.00,FEW,,0.00,0.0,WeatherDisplay:10.37,2013-02-09 05:45:00,
2013-02-09 07:50:00,43.5,37.4,29.78,North,0,0.0,0.0,79,0.00,FEW,,0.00,0.0,WeatherDisplay:10.37,2013-02-09 05:50:00,
2013-02-09 07:55:00,43.9,37.8,29.78,NW,315,0.0,0.0,79,0.00,FEW,,0.00,0.0,WeatherDisplay:10.37,2013-02-09 05:55:00,
2013-02-09 08:00:00,44.2,38.1,29.79,West,270,0.0,0.0,79,0.00,FEW,,0.00,0.0,WeatherDisplay:10.37,2013-02-09 06:00:00,
2013-02-09 08:05:00,44.6,38.5,29.79,SW,225,0.0,0.0,79,0.00,FEW,,0.00,0.0,WeatherDisplay:10.37,2013-02-09 06:05:00,
2013-02-09 08:10:00,45.0,38.8,29.79,WNW,292,0.0,0.0,79,0.00,FEW,,0.00,0.0,WeatherDisplay:10.37,2013-02-09 06:10:00,
2013-02-09 08:15:00,45.5,39.4,29.79,SE,135,0.0,0.0,79,0.00,FEW,,0.00,0.0,WeatherDisplay:10.37,2013-02-09 06:15:00,
2013-02-09 08:20:00,45.7,39.2,29.79,ENE,68,3.5,3.5,78,0.00,FEW,,0.00,0.0,WeatherDisplay:10.37,2013-02-09 06:20:00,
2013-02-09 08:25:00,45.5,39.0,29.79,NE,45,1.6,1.6,78,0.00,FEW,,0.00,0.0,WeatherDisplay:10.37,2013-02-09 06:25:00,
2013-02-09 08:30:00,45.7,39.2,29.80,NE,45,1.1,1.1,78,0.00,FEW,,0.00,0.0,WeatherDisplay:10.37,2013-02-09 06:30:00,
2013-02-09 08:35:00,46.0,39.2,29.80,North,0,0.0,0.0,77,0.00,FEW,,0.00,0.0,WeatherDisplay:10.37,2013-02-09 06:35:00,
2013-02-09 08:40:00,46.6,39.8,29.80,ENE,68,0.0,0.0,77,0.00,FEW,,0.00,0.0,WeatherDisplay:10.37,2013-02-09 06:40:00,
2013-02-09 08:45:00,47.1,40.3,29.80,ENE,68,0.0,0.0,77,0.00,FEW,,0.00,0.0,WeatherDisplay:10.37,2013-02-09 06:45:00,
2013-02-09 08:50:00,47.8,40.6,29.81,ENE,68,0.0,0.0,76,0.00,FEW,,0.00,0.0,WeatherDisplay:10.37,2013-02-09 06:50:00,
2013-02-09 08:55:00,48.6,41.3,29.81,East,90,0.0,0.0,76,0.00,FEW,,0.00,0.0,WeatherDisplay:10.37,2013-02-09 06:55:00,
2013-02-09 09:00:00,49.6,42.0,29.81,ENE,68,0.0,0.0,75,0.00,FEW,,0.00,0.0,WeatherDisplay:10.37,2013-02-09 07:00:00,
2013-02-09 09:05:00,50.7,42.7,29.81,ESE,112,0.0,0.0,74,0.00,FEW,,0.00,0.0,WeatherDisplay:10.37,2013-02-09 07:05:00,
2013-02-09 09:10:00,51.6,42.9,29.81,ESE,112,0.0,0.0,72,0.00,FEW,,0.00,0.0,WeatherDisplay:10.37,2013-02-09 07:10:00,
2013-02-09 09:15:00,51.8,42.7,29.81,ENE,68,2.3,2.3,71,0.00,FEW,,0.00,0.0,WeatherDisplay:10.37,2013-02-09 07:15:00,
2013-02-09 09:20:00,52.0,42.5,29.81,SSE,158,1.1,1.1,70,0.00,FEW,,0.00,0.0,WeatherDisplay:10.37,2013-02-09 07:20:00,
2013-02-09 09:25:00,52.2,42.3,29.81,East,90,0.0,0.0,69,0.00,FEW,,0.00,0.0,WeatherDisplay:10.37,2013-02-09 07:25:00,
2013-02-09 09:30:00,52.7,42.4,29.81,SE,135,0.0,0.0,68,0.00,FEW,,0.00,0.0,WeatherDisplay:10.37,2013-02-09 07:30:00,
2013-02-09 09:35:00,53.2,42.6,29.81,SSW,202,0.0,0.0,67,0.00,FEW,,0.00,0.0,WeatherDisplay:10.37,2013-02-09 07:35:00,
2013-02-09 09:40:00,54.0,42.9,29.81,NW,315,0.0,0.0,66,0.00,FEW,,0.00,0.0,WeatherDisplay:10.37,2013-02-09 07:40:00,
2013-02-09 09:45:00,54.7,43.1,29.80,SE,135,0.0,0.0,65,0.00,FEW,,0.00,0.0,WeatherDisplay:10.37,2013-02-09 07:45:00,
2013-02-09 09:50:00,55.2,42.8,29.81,East,90,2.3,2.3,63,0.00,FEW,,0.00,0.0,WeatherDisplay:10.37,2013-02-09 07:50:00,
2013-02-09 09:55:00,55.4,42.6,29.81,SSE,158,3.5,3.5,62,0.00,FEW,,0.00,0.0,WeatherDisplay:10.37,2013-02-09 07:55:00,
2013-02-09 10:00:00,55.2,42.0,29.81,ENE,68,1.1,1.1,61,0.00,FEW,,0.00,0.0,WeatherDisplay:10.37,2013-02-09 08:00:00,
2013-02-09 10:05:00,55.6,42.3,29.81,ENE,68,0.0,0.0,61,0.00,FEW,,0.00,0.0,WeatherDisplay:10.37,2013-02-09 08:05:00,
2013-02-09 10:10:00,55.9,42.2,29.81,South,180,2.3,2.3,60,0.00,FEW,,0.00,0.0,WeatherDisplay:10.37,2013-02-09 08:10:00,
2013-02-09 10:15:00,56.1,42.0,29.81,SE,135,3.5,3.5,59,0.00,FEW,,0.00,0.0,WeatherDisplay:10.37,2013-02-09 08:15:00,
2013-02-09 10:20:00,55.9,41.8,29.81,SSE,158,5.8,5.8,59,0.00,FEW,,0.00,0.0,WeatherDisplay:10.37,2013-02-09 08:20:00,
2013-02-09 10:25:00,55.4,40.9,29.81,West,270,10.4,10.4,58,0.00,FEW,,0.00,0.0,WeatherDisplay:10.37,2013-02-09 08:25:00,
2013-02-09 10:30:00,55.2,40.7,29.81,SSW,202,5.8,5.8,58,0.00,FEW,,0.00,0.0,WeatherDisplay:10.37,2013-02-09 08:30:00,
2013-02-09 10:35:00,55.8,41.2,29.82,SSW,202,3.5,3.5,58,0.00,FEW,,0.00,0.0,WeatherDisplay:10.37,2013-02-09 08:35:00,
2013-02-09 10:40:00,55.9,40.9,29.81,West,270,5.8,5.8,57,0.00,FEW,,0.00,0.0,WeatherDisplay:10.37,2013-02-09 08:40:00,
2013-02-09 10:45:00,56.1,40.6,29.82,WSW,248,3.5,3.9,56,0.00,FEW,,0.00,0.0,WeatherDisplay:10.37,2013-02-09 08:45:00,
2013-02-09 10:50:00,56.1,40.6,29.81,SW,225,4.6,4.6,56,0.00,FEW,,0.00,0.0,WeatherDisplay:10.37,2013-02-09 08:50:00,
2013-02-09 10:55:00,56.3,40.3,29.82,SSE,158,10.4,10.4,55,0.00,FEW,,0.00,0.0,WeatherDisplay:10.37,2013-02-09 08:55:00,
2013-02-09 11:00:00,56.1,40.2,29.82,WSW,248,16.1,16.1,55,0.00,FEW,,0.00,0.0,WeatherDisplay:10.37,2013-02-09 09:00:00,
2013-02-09 11:05:00,55.8,39.4,29.82,SW,225,9.2,9.2,54,0.00,FEW,,0.00,0.0,WeatherDisplay:10.37,2013-02-09 09:05:00,
2013-02-09 11:10:00,55.9,39.5,29.83,SW,225,9.2,9.2,54,0.00,FEW,,0.00,0.0,WeatherDisplay:10.37,2013-02-09 09:10:00,
2013-02-09 11:15:00,56.5,40.0,29.83,SSW,202,4.6,4.6,54,0.00,FEW,,0.00,0.0,WeatherDisplay:10.37,2013-02-09 09:15:00,
2013-02-09 11:20:00,56.5,39.1,29.83,WSW,248,2.9,2.9,52,0.00,FEW,,0.00,0.0,WeatherDisplay:10.37,2013-02-09 09:20:00,
2013-02-09 11:25:00,57.0,39.6,29.83,WSW,248,11.4,11.4,52,0.00,FEW,,0.00,0.0,WeatherDisplay:10.37,2013-02-09 09:25:00,
2013-02-09 11:30:00,56.8,39.4,29.83,WNW,292,5.1,5.1,52,0.00,FEW,,0.00,0.0,WeatherDisplay:10.37,2013-02-09 09:30:00,
2013-02-09 11:35:00,57.0,40.0,29.83,WSW,248,6.9,6.9,53,0.00,FEW,,0.00,0.0,WeatherDisplay:10.37,2013-02-09 09:35:00,
2013-02-09 11:40:00,57.4,40.4,29.83,WSW,248,3.5,3.5,53,0.00,FEW,,0.00,0.0,WeatherDisplay:10.37,2013-02-09 09:40:00,
2013-02-09 11:45:00,57.7,40.2,29.83,SSW,202,12.7,12.7,52,0.00,FEW,,0.00,0.0,WeatherDisplay:10.37,2013-02-09 09:45:00,
2013-02-09 11:50:00,57.6,40.1,29.83,ESE,112,5.8,5.8,52,0.00,FEW,,0.00,0.0,WeatherDisplay:10.37,2013-02-09 09:50:00,
2013-02-09 11:55:00,57.9,40.4,29.82,West,270,11.2,11.2,52,0.00,FEW,,0.00,0.0,WeatherDisplay:10.37,2013-02-09 09:55:00,
2013-02-09 12:00:00,57.7,39.7,29.82,SW,225,6.9,6.9,51,0.00,FEW,,0.00,0.0,WeatherDisplay:10.37,2013-02-09 10:00:00,
2013-02-09 12:05:00,57.7,39.7,29.82,WNW,292,4.6,4.6,51,0.00,FEW,,0.00,0.0,WeatherDisplay:10.37,2013-02-09 10:05:00,
2013-02-09 12:10:00,57.9,39.4,29.82,WSW,248,9.2,9.2,50,0.00,FEW,,0.00,0.0,WeatherDisplay:10.37,2013-02-09 10:10:00,
2013-02-09 12:15:00,57.9,39.4,29.82,WSW,248,9.2,9.2,50,0.00,FEW,,0.00,0.0,WeatherDisplay:10.37,2013-02-09 10:15:00,
2013-02-09 12:20:00,57.9,39.4,29.82,WSW,248,8.0,8.0,50,0.00,FEW,,0.00,0.0,WeatherDisplay:10.37,2013-02-09 10:20:00,
2013-02-09 12:25:00,58.1,38.5,29.83,SSW,202,15.0,15.0,48,0.00,FEW,,0.00,0.0,WeatherDisplay:10.37,2013-02-09 10:25:00,
2013-02-09 12:30:00,57.4,37.8,29.82,SSW,202,15.0,15.0,48,0.00,FEW,,0.00,0.0,WeatherDisplay:10.37,2013-02-09 10:30:00,
2013-02-09 12:35:00,56.7,37.2,29.82,SSW,202,15.0,15.0,48,0.00,FEW,,0.00,0.0,WeatherDisplay:10.37,2013-02-09 10:35:00,
2013-02-09 12:40:00,56.5,37.5,29.82,SW,225,10.4,10.4,49,0.00,FEW,,0.00,0.0,WeatherDisplay:10.37,2013-02-09 10:40:00,
2013-02-09 12:45:00,56.8,38.4,29.81,South,180,6.9,6.9,50,0.00,FEW,,0.00,0.0,WeatherDisplay:10.37,2013-02-09 10:45:00,
2013-02-09 12:50:00,57.4,38.4,29.81,WSW,248,8.1,8.1,49,0.00,FEW,,0.00,0.0,WeatherDisplay:10.37,2013-02-09 10:50:00,
2013-02-09 12:55:00,57.7,38.2,29.81,SW,225,8.1,8.2,48,0.00,FEW,,0.00,0.0,WeatherDisplay:10.37,2013-02-09 10:55:00,
2013-02-09 13:00:00,57.6,38.5,29.81,South,180,9.2,9.2,49,0.00,FEW,,0.00,0.0,WeatherDisplay:10.37,2013-02-09 11:00:00,
2013-02-09 13:05:00,57.7,38.2,29.81,SW,225,18.4,18.4,48,0.00,SCT,,0.00,0.0,WeatherDisplay:10.37,2013-02-09 11:05:00,
2013-02-09 13:10:00,57.9,38.3,29.81,WSW,248,11.5,11.5,48,0.00,SCT,,0.00,0.0,WeatherDisplay:10.37,2013-02-09 11:10:00,
2013-02-09 13:15:00,57.7,38.2,29.81,WSW,248,14.5,14.5,48,0.00,SCT,,0.00,0.0,WeatherDisplay:10.37,2013-02-09 11:15:00,
2013-02-09 13:20:00,57.4,37.8,29.81,WSW,248,9.2,9.2,48,0.00,SCT,,0.00,0.0,WeatherDisplay:10.37,2013-02-09 11:20:00,
2013-02-09 13:25:00,57.0,38.0,29.81,SW,225,9.2,9.2,49,0.00,SCT,,0.00,0.0,WeatherDisplay:10.37,2013-02-09 11:25:00,
2013-02-09 13:30:00,56.8,37.9,29.81,SSW,202,18.4,18.4,49,0.00,SCT,,0.00,0.0,WeatherDisplay:10.37,2013-02-09 11:30:00,
2013-02-09 13:35:00,57.0,37.5,29.81,West,270,11.5,11.5,48,0.00,SCT,,0.00,0.0,WeatherDisplay:10.37,2013-02-09 11:35:00,
2013-02-09 13:40:00,57.0,37.5,29.81,SSW,202,10.4,10.4,48,0.00,SCT,,0.00,0.0,WeatherDisplay:10.37,2013-02-09 11:40:00,
2013-02-09 13:45:00,56.5,37.5,29.81,SSW,202,18.4,18.4,49,0.00,SCT,,0.00,0.0,WeatherDisplay:10.37,2013-02-09 11:45:00,
2013-02-09 13:50:00,55.9,37.0,29.81,SW,225,10.4,10.4,49,0.00,SCT,,0.00,0.0,WeatherDisplay:10.37,2013-02-09 11:50:00,
2013-02-09 13:55:00,55.9,37.6,29.81,SSW,202,12.7,12.7,50,0.00,SCT,,0.00,0.0,WeatherDisplay:10.37,2013-02-09 11:55:00,
2013-02-09 14:00:00,56.8,38.4,29.81,SSW,202,9.2,9.2,50,0.00,SCT,,0.00,0.0,WeatherDisplay:10.37,2013-02-09 12:00:00,
2013-02-09 14:05:00,57.4,38.4,29.81,South,180,13.8,13.8,49,0.00,SCT,,0.00,0.0,WeatherDisplay:10.37,2013-02-09 12:05:00,
2013-02-09 14:10:00,57.7,38.7,29.81,SSW,202,15.9,15.9,49,0.00,SCT,,0.00,0.0,WeatherDisplay:10.37,2013-02-09 12:10:00,
2013-02-09 14:15:00,57.9,38.9,29.81,SSW,202,8.5,8.5,49,0.00,SCT,,0.00,0.0,WeatherDisplay:10.37,2013-02-09 12:15:00,
2013-02-09 14:20:00,57.9,38.9,29.81,West,270,12.7,12.7,49,0.00,SCT,,0.00,0.0,WeatherDisplay:10.37,2013-02-09 12:20:00,
2013-02-09 14:25:00,57.9,38.9,29.81,South,180,16.1,16.1,49,0.00,SCT,,0.00,0.0,WeatherDisplay:10.37,2013-02-09 12:25:00,
2013-02-09 14:30:00,57.6,38.5,29.81,SSW,202,15.0,15.0,49,0.00,SCT,,0.00,0.0,WeatherDisplay:10.37,2013-02-09 12:30:00,
2013-02-09 14:35:00,57.7,39.2,29.80,SSE,158,11.5,11.5,50,0.00,SCT,,0.00,0.0,WeatherDisplay:10.37,2013-02-09 12:35:00,
2013-02-09 14:40:00,57.7,39.2,29.81,SE,135,16.1,16.1,50,0.00,SCT,,0.00,0.0,WeatherDisplay:10.37,2013-02-09 12:40:00,
2013-02-09 14:45:00,57.2,38.7,29.80,SSE,158,9.2,9.2,50,0.00,SCT,,0.00,0.0,WeatherDisplay:10.37,2013-02-09 12:45:00,
2013-02-09 14:50:00,57.4,39.4,29.80,West,270,5.8,5.8,51,0.00,SCT,,0.00,0.0,WeatherDisplay:10.37,2013-02-09 12:50:00,
2013-02-09 14:55:00,57.6,39.0,29.81,SW,225,9.2,9.2,50,0.00,SCT,,0.00,0.0,WeatherDisplay:10.37,2013-02-09 12:55:00,
2013-02-09 15:00:00,57.6,39.0,29.81,SSW,202,8.1,8.1,50,0.00,SCT,,0.00,0.0,WeatherDisplay:10.37,2013-02-09 13:00:00,
2013-02-09 15:05:00,57.6,39.0,29.81,SSE,158,9.2,9.2,50,0.00,SCT,,0.00,0.0,WeatherDisplay:10.37,2013-02-09 13:05:00,
2013-02-09 15:10:00,57.7,39.2,29.81,SW,225,11.5,11.5,50,0.00,SCT,,0.00,0.0,WeatherDisplay:10.37,2013-02-09 13:10:00,
2013-02-09 15:15:00,57.7,39.2,29.81,SSE,158,8.1,8.1,50,0.00,SCT,,0.00,0.0,WeatherDisplay:10.37,2013-02-09 13:15:00,
2013-02-09 15:20:00,57.9,39.4,29.81,SSW,202,3.5,3.5,50,0.00,SCT,,0.00,0.0,WeatherDisplay:10.37,2013-02-09 13:20:00,
2013-02-09 15:25:00,58.6,40.0,29.81,WNW,292,6.9,6.9,50,0.00,SCT,,0.00,0.0,WeatherDisplay:10.37,2013-02-09 13:25:00,
2013-02-09 15:30:00,58.8,40.2,29.81,SSW,202,7.6,7.6,50,0.00,SCT,,0.00,0.0,WeatherDisplay:10.37,2013-02-09 13:30:00,
2013-02-09 15:35:00,58.3,39.7,29.81,South,180,10.4,10.4,50,0.00,SCT,,0.00,0.0,WeatherDisplay:10.37,2013-02-09 13:35:00,
2013-02-09 15:40:00,58.3,39.7,29.81,South,180,12.7,12.7,50,0.00,SCT,,0.00,0.0,WeatherDisplay:10.37,2013-02-09 13:40:00,
2013-02-09 15:45:00,57.9,40.4,29.81,WSW,248,3.5,3.5,52,0.00,SCT,,0.00,0.0,WeatherDisplay:10.37,2013-02-09 13:45:00,
2013-02-09 15:50:00,57.9,40.4,29.81,South,180,11.5,11.5,52,0.00,SCT,,0.00,0.0,WeatherDisplay:10.37,2013-02-09 13:50:00,
2013-02-09 15:55:00,58.1,40.6,29.81,WSW,248,9.2,9.2,52,0.00,SCT,,0.00,0.0,WeatherDisplay:10.37,2013-02-09 13:55:00,
2013-02-09 16:00:00,57.9,40.4,29.81,WSW,248,6.9,6.9,52,0.00,SCT,,0.00,0.0,WeatherDisplay:10.37,2013-02-09 14:00:00,
2013-02-09 16:05:00,57.7,40.2,29.81,SSW,202,5.8,5.8,52,0.00,SCT,,0.00,0.0,WeatherDisplay:10.37,2013-02-09 14:05:00,
2013-02-09 16:10:00,57.9,40.4,29.81,SW,225,5.8,5.8,52,0.00,SCT,,0.00,0.0,WeatherDisplay:10.37,2013-02-09 14:10:00,
2013-02-09 16:15:00,57.9,39.4,29.81,SW,225,8.1,8.1,50,0.00,SCT,,0.00,0.0,WeatherDisplay:10.37,2013-02-09 14:15:00,
2013-02-09 16:20:00,57.7,39.2,29.81,SW,225,5.8,5.8,50,0.00,SCT,,0.00,0.0,WeatherDisplay:10.37,2013-02-09 14:20:00,
2013-02-09 16:25:00,57.6,39.0,29.81,SSW,202,6.9,6.9,50,0.00,SCT,,0.00,0.0,WeatherDisplay:10.37,2013-02-09 14:25:00,
2013-02-09 16:30:00,57.4,38.9,29.81,SW,225,5.8,5.8,50,0.00,SCT,,0.00,0.0,WeatherDisplay:10.37,2013-02-09 14:30:00,
2013-02-09 16:35:00,57.4,39.4,29.82,West,270,10.4,10.4,51,0.00,SCT,,0.00,0.0,WeatherDisplay:10.37,2013-02-09 14:35:00,
2013-02-09 16:40:00,57.2,38.7,29.81,West,270,11.5,11.5,50,0.00,SCT,,0.00,0.0,WeatherDisplay:10.37,2013-02-09 14:40:00,
2013-02-09 16:45:00,56.8,38.4,29.82,WSW,248,9.2,9.2,50,0.00,SCT,,0.00,0.0,WeatherDisplay:10.37,2013-02-09 14:45:00,
2013-02-09 16:50:00,56.8,38.9,29.81,SSW,202,13.8,13.8,51,0.00,SCT,,0.00,0.0,WeatherDisplay:10.37,2013-02-09 14:50:00,
2013-02-09 16:55:00,56.5,38.6,29.82,SW,225,10.4,10.4,51,0.00,SCT,,0.00,0.0,WeatherDisplay:10.37,2013-02-09 14:55:00,
2013-02-09 17:00:00,56.3,38.4,29.81,South,180,8.1,8.1,51,0.00,SCT,,0.00,0.0,WeatherDisplay:10.37,2013-02-09 15:00:00,
2013-02-09 17:05:00,55.9,38.1,29.81,SW,225,8.1,8.1,51,0.00,SCT,,0.00,0.0,WeatherDisplay:10.37,2013-02-09 15:05:00,
2013-02-09 17:10:00,55.6,37.7,29.81,SW,225,8.1,8.1,51,0.00,SCT,,0.00,0.0,WeatherDisplay:10.37,2013-02-09 15:10:00,
2013-02-09 17:15:00,55.4,38.1,29.81,WSW,248,6.9,6.9,52,0.00,SCT,,0.00,0.0,WeatherDisplay:10.37,2013-02-09 15:15:00,
2013-02-09 17:20:00,55.2,37.9,29.81,SW,225,8.1,8.1,52,0.00,SCT,,0.00,0.0,WeatherDisplay:10.37,2013-02-09 15:20:00,
2013-02-09 17:25:00,55.2,37.9,29.81,SSW,202,9.2,9.2,52,0.00,SCT,,0.00,0.0,WeatherDisplay:10.37,2013-02-09 15:25:00,
2013-02-09 17:30:00,55.0,38.2,29.81,SSW,202,3.5,3.5,53,0.00,SCT,,0.00,0.0,WeatherDisplay:10.37,2013-02-09 15:30:00,
2013-02-09 17:35:00,55.0,38.2,29.82,West,270,2.3,2.3,53,0.00,SCT,,0.00,0.0,WeatherDisplay:10.37,2013-02-09 15:35:00,
2013-02-09 17:40:00,54.9,38.5,29.81,SSW,202,3.5,3.5,54,0.00,SCT,,0.00,0.0,WeatherDisplay:10.37,2013-02-09 15:40:00,
2013-02-09 17:45:00,54.7,38.4,29.81,West,270,3.5,3.5,54,0.00,SCT,,0.00,0.0,WeatherDisplay:10.37,2013-02-09 15:45:00,
2013-02-09 17:50:00,54.7,38.8,29.81,NW,315,2.3,2.3,55,0.00,SCT,,0.00,0.0,WeatherDisplay:10.37,2013-02-09 15:50:00,
2013-02-09 17:55:00,54.5,38.7,29.82,South,180,0.0,0.1,55,0.00,SCT,,0.00,0.0,WeatherDisplay:10.37,2013-02-09 15:55:00,
2013-02-09 18:00:00,54.3,38.5,29.81,WSW,248,2.3,2.3,55,0.00,SCT,,0.00,0.0,WeatherDisplay:10.37,2013-02-09 16:00:00,
2013-02-09 18:05:00,54.3,38.9,29.82,SSW,202,0.0,1.0,56,0.00,SCT,,0.00,0.0,WeatherDisplay:10.37,2013-02-09 16:05:00,
2013-02-09 18:10:00,54.1,38.8,29.82,SW,225,2.3,2.3,56,0.00,SCT,,0.00,0.0,WeatherDisplay:10.37,2013-02-09 16:10:00,
2013-02-09 18:15:00,54.1,38.8,29.82,SSW,202,3.5,3.5,56,0.00,SCT,,0.00,0.0,WeatherDisplay:10.37,2013-02-09 16:15:00,
2013-02-09 18:20:00,54.3,38.9,29.82,SW,225,3.5,3.5,56,0.00,SCT,,0.00,0.0,WeatherDisplay:10.37,2013-02-09 16:20:00,
2013-02-09 18:25:00,54.3,38.9,29.82,SSW,202,3.5,3.5,56,0.00,SCT,,0.00,0.0,WeatherDisplay:10.37,2013-02-09 16:25:00,
2013-02-09 18:30:00,54.3,38.9,29.82,South,180,1.6,1.6,56,0.00,SCT,,0.00,0.0,WeatherDisplay:10.37,2013-02-09 16:30:00,
2013-02-09 18:35:00,54.3,38.9,29.83,WSW,248,2.3,2.3,56,0.00,SCT,,0.00,0.0,WeatherDisplay:10.37,2013-02-09 16:35:00,
2013-02-09 18:40:00,54.3,38.9,29.82,WSW,248,2.3,2.3,56,0.00,SCT,,0.00,0.0,WeatherDisplay:10.37,2013-02-09 16:40:00,
2013-02-09 18:45:00,54.3,38.9,29.83,WSW,248,6.9,6.9,56,0.00,SCT,,0.00,0.0,WeatherDisplay:10.37,2013-02-09 16:45:00,
2013-02-09 18:50:00,54.1,38.3,29.83,WSW,248,8.1,8.1,55,0.00,SCT,,0.00,0.0,WeatherDisplay:10.37,2013-02-09 16:50:00,
2013-02-09 18:55:00,54.0,38.1,29.83,SW,225,3.5,3.5,55,0.00,SCT,,0.00,0.0,WeatherDisplay:10.37,2013-02-09 16:55:00,
2013-02-09 19:00:00,53.8,38.4,29.83,WNW,292,3.5,3.5,56,0.00,SCT,,0.00,0.0,WeatherDisplay:10.37,2013-02-09 17:00:00,
2013-02-09 19:05:00,53.6,38.7,29.83,SW,225,2.3,2.3,57,0.00,SCT,,0.00,0.0,WeatherDisplay:10.37,2013-02-09 17:05:00,
2013-02-09 19:10:00,53.4,39.0,29.83,WSW,248,3.1,3.1,58,0.00,SCT,,0.00,0.0,WeatherDisplay:10.37,2013-02-09 17:10:00,
2013-02-09 19:15:00,53.2,39.3,29.83,South,180,1.1,1.1,59,0.00,SCT,,0.00,0.0,WeatherDisplay:10.37,2013-02-09 17:15:00,
2013-02-09 19:20:00,53.2,39.3,29.83,WSW,248,4.5,4.5,59,0.00,SCT,,0.00,0.0,WeatherDisplay:10.37,2013-02-09 17:20:00,
2013-02-09 19:25:00,52.9,39.4,29.84,SW,225,6.9,6.9,60,0.00,SCT,,0.00,0.0,WeatherDisplay:10.37,2013-02-09 17:25:00,
2013-02-09 19:30:00,52.9,39.4,29.83,WSW,248,3.5,3.5,60,0.00,SCT,,0.00,0.0,WeatherDisplay:10.37,2013-02-09 17:30:00,
2013-02-09 19:35:00,52.7,39.6,29.83,South,180,4.6,4.6,61,0.00,SCT,,0.00,0.0,WeatherDisplay:10.37,2013-02-09 17:35:00,
2013-02-09 19:40:00,52.5,39.9,29.83,South,180,4.6,4.6,62,0.00,SCT,,0.00,0.0,WeatherDisplay:10.37,2013-02-09 17:40:00,
2013-02-09 19:45:00,52.3,39.7,29.83,SSE,158,3.5,3.5,62,0.00,SCT,,0.00,0.0,WeatherDisplay:10.37,2013-02-09 17:45:00,
2013-02-09 19:50:00,52.3,40.1,29.83,WSW,248,5.8,5.8,63,0.00,SCT,,0.00,0.0,WeatherDisplay:10.37,2013-02-09 17:50:00,
2013-02-09 19:55:00,52.0,39.8,29.83,SW,225,4.6,4.6,63,0.00,SCT,,0.00,0.0,WeatherDisplay:10.37,2013-02-09 17:55:00,
2013-02-09 20:00:00,52.0,40.2,29.83,SW,225,4.0,4.0,64,0.00,SCT,,0.00,0.0,WeatherDisplay:10.37,2013-02-09 18:00:00,
2013-02-09 20:05:00,51.8,40.0,29.83,SW,225,3.5,3.5,64,0.00,FEW,,0.00,0.0,WeatherDisplay:10.37,2013-02-09 18:05:00,
2013-02-09 20:10:00,51.6,40.2,29.83,SW,225,2.3,2.3,65,0.00,FEW,,0.00,0.0,WeatherDisplay:10.37,2013-02-09 18:10:00,
2013-02-09 20:15:00,51.6,40.2,29.83,WSW,248,2.3,2.3,65,0.00,FEW,,0.00,0.0,WeatherDisplay:10.37,2013-02-09 18:15:00,
2013-02-09 20:20:00,51.6,40.2,29.83,WSW,248,3.5,3.5,65,0.00,FEW,,0.00,0.0,WeatherDisplay:10.37,2013-02-09 18:20:00,
2013-02-09 20:25:00,51.4,40.5,29.83,SW,225,2.3,0.0,66,0.39,RA,,0.78,0.0,WeatherDisplay:10.37,2013-02-09 18:25:00,
2013-02-09 20:30:00,51.4,40.5,29.83,WSW,248,2.5,0.0,66,0.78,RA,,0.78,0.0,WeatherDisplay:10.37,2013-02-09 18:30:00,
2013-02-09 20:35:00,51.3,40.3,29.83,WSW,248,3.4,3.4,66,0.78,RA,,0.78,0.0,WeatherDisplay:10.37,2013-02-09 18:35:00,
2013-02-09 20:40:00,51.3,39.9,29.83,WSW,248,6.7,6.7,65,0.78,RA,,0.78,0.0,WeatherDisplay:10.37,2013-02-09 18:40:00,
2013-02-09 20:45:00,51.3,39.9,29.83,WNW,292,4.6,5.1,65,0.78,RA,,0.78,0.0,WeatherDisplay:10.37,2013-02-09 18:45:00,
2013-02-09 20:50:00,51.4,39.7,29.83,SW,225,5.8,5.8,64,0.78,RA,,0.78,0.0,WeatherDisplay:10.37,2013-02-09 18:50:00,
2013-02-09 20:55:00,51.4,39.7,29.83,WSW,248,9.2,9.2,64,0.78,RA,,0.78,0.0,WeatherDisplay:10.37,2013-02-09 18:55:00,
2013-02-09 21:00:00,51.4,39.7,29.83,WSW,248,6.9,6.9,64,0.78,FEW,,0.78,0.0,WeatherDisplay:10.37,2013-02-09 19:00:00,
2013-02-09 21:05:00,51.4,39.3,29.83,West,270,5.8,5.8,63,0.78,FEW,,0.78,0.0,WeatherDisplay:10.37,2013-02-09 19:05:00,
2013-02-09 21:10:00,51.4,39.3,29.84,South,180,4.6,4.6,63,0.78,FEW,,0.78,0.0,WeatherDisplay:10.37,2013-02-09 19:10:00,
2013-02-09 21:15:00,51.4,39.3,29.84,WNW,292,4.6,4.6,63,0.78,FEW,,0.78,0.0,WeatherDisplay:10.37,2013-02-09 19:15:00,
2013-02-09 21:20:00,51.4,39.7,29.84,West,270,4.6,4.6,64,0.78,FEW,,0.78,0.0,WeatherDisplay:10.37,2013-02-09 19:20:00,
2013-02-09 21:25:00,51.3,39.5,29.83,West,270,5.8,5.8,64,0.39,FEW,,0.78,0.0,WeatherDisplay:10.37,2013-02-09 19:25:00,
2013-02-09 21:30:00,51.3,39.9,29.83,NW,315,6.9,6.9,65,0.00,FEW,,0.78,0.0,WeatherDisplay:10.37,2013-02-09 19:30:00,
2013-02-09 21:35:00,51.3,39.9,29.83,NW,315,8.1,8.1,65,0.00,FEW,,0.78,0.0,WeatherDisplay:10.37,2013-02-09 19:35:00,
2013-02-09 21:40:00,51.3,39.5,29.83,West,270,9.2,9.2,64,0.00,FEW,,0.78,0.0,WeatherDisplay:10.37,2013-02-09 19:40:00,
2013-02-09 21:45:00,51.3,39.5,29.83,WNW,292,5.8,5.8,64,0.00,FEW,,0.78,0.0,WeatherDisplay:10.37,2013-02-09 19:45:00,
2013-02-09 21:50:00,51.3,39.1,29.83,SW,225,8.1,8.1,63,0.00,FEW,,0.78,0.0,WeatherDisplay:10.37,2013-02-09 19:50:00,
2013-02-09 21:55:00,51.3,39.1,29.83,WSW,248,8.1,8.1,63,0.00,FEW,,0.78,0.0,WeatherDisplay:10.37,2013-02-09 19:55:00,
2013-02-09 22:00:00,51.3,39.1,29.83,WNW,292,4.6,4.6,63,0.00,FEW,,0.78,0.0,WeatherDisplay:10.37,2013-02-09 20:00:00,
2013-02-09 22:05:00,51.3,38.7,29.83,WNW,292,4.6,4.6,62,0.00,SCT,,0.78,0.0,WeatherDisplay:10.37,2013-02-09 20:05:00,
2013-02-09 22:10:00,51.1,38.5,29.83,West,270,3.5,3.5,62,0.00,SCT,,0.78,0.0,WeatherDisplay:10.37,2013-02-09 20:10:00,
2013-02-09 22:15:00,51.1,38.5,29.83,WSW,248,3.5,3.5,62,0.00,SCT,,0.78,0.0,WeatherDisplay:10.37,2013-02-09 20:15:00,
2013-02-09 22:20:00,51.1,38.5,29.83,WSW,248,4.0,4.0,62,0.00,SCT,,0.78,0.0,WeatherDisplay:10.37,2013-02-09 20:20:00,
2013-02-09 22:25:00,51.1,38.5,29.83,West,270,3.5,3.5,62,0.00,SCT,,0.78,0.0,WeatherDisplay:10.37,2013-02-09 20:25:00,
2013-02-09 22:30:00,51.1,38.5,29.83,WSW,248,5.8,5.8,62,0.00,SCT,,0.78,0.0,WeatherDisplay:10.37,2013-02-09 20:30:00,
2013-02-09 22:35:00,51.1,38.5,29.83,WSW,248,0.0,0.2,62,0.00,SCT,,0.78,0.0,WeatherDisplay:10.37,2013-02-09 20:35:00,
2013-02-09 22:40:00,51.1,38.9,29.83,WSW,248,8.1,8.1,63,0.00,SCT,,0.78,0.0,WeatherDisplay:10.37,2013-02-09 20:40:00,
2013-02-09 22:45:00,51.1,38.9,29.83,West,270,3.5,3.5,63,0.00,SCT,,0.78,0.0,WeatherDisplay:10.37,2013-02-09 20:45:00,
2013-02-09 22:50:00,51.1,38.9,29.83,West,270,5.8,5.8,63,0.00,SCT,,0.78,0.0,WeatherDisplay:10.37,2013-02-09 20:50:00,
2013-02-09 22:55:00,51.1,39.3,29.83,WNW,292,4.6,4.6,64,0.00,SCT,,0.78,0.0,WeatherDisplay:10.37,2013-02-09 20:55:00,
2013-02-09 23:00:00,51.1,39.3,29.82,WSW,248,4.6,4.6,64,0.00,SCT,,0.78,0.0,WeatherDisplay:10.37,2013-02-09 21:00:00,
2013-02-09 23:05:00,51.1,39.3,29.83,WSW,248,4.6,4.6,64,0.00,BKN,,0.78,0.0,WeatherDisplay:10.37,2013-02-09 21:05:00,
2013-02-09 23:10:00,51.1,39.3,29.83,West,270,5.8,5.8,64,0.00,BKN,,0.78,0.0,WeatherDisplay:10.37,2013-02-09 21:10:00,
2013-02-09 23:15:00,51.1,39.3,29.82,WNW,292,1.1,1.1,64,0.00,BKN,,0.78,0.0,WeatherDisplay:10.37,2013-02-09 21:15:00,
2013-02-09 23:20:00,51.1,39.3,29.83,West,270,2.3,2.3,64,0.00,BKN,,0.78,0.0,WeatherDisplay:10.37,2013-02-09 21:20:00,
2013-02-09 23:25:00,50.9,39.1,29.83,SW,225,2.3,2.3,64,0.00,BKN,,0.78,0.0,WeatherDisplay:10.37,2013-02-09 21:25:00,
2013-02-09 23:30:00,50.9,38.7,29.83,WSW,248,3.5,3.5,63,0.00,BKN,,0.78,0.0,WeatherDisplay:10.37,2013-02-09 21:30:00,
2013-02-09 23:35:00,50.9,38.7,29.82,West,270,0.0,0.1,63,0.00,BKN,,0.78,0.0,WeatherDisplay:10.37,2013-02-09 21:35:00,
2013-02-09 23:40:00,50.9,38.7,29.82,SW,225,0.0,0.0,63,0.00,BKN,,0.78,0.0,WeatherDisplay:10.37,2013-02-09 21:40:00,
2013-02-09 23:45:00,50.7,39.0,29.82,SSW,202,2.3,2.3,64,0.00,BKN,,0.78,0.0,WeatherDisplay:10.37,2013-02-09 21:45:00,
2013-02-09 23:50:00,50.7,39.0,29.82,WSW,248,5.8,5.8,64,0.00,BKN,,0.78,0.0,WeatherDisplay:10.37,2013-02-09 21:50:00,
2013-02-09 23:55:00,50.7,39.0,29.82,WNW,292,2.5,2.5,64,0.00,RA,,0.00,0.0,WeatherDisplay:10.37,2013-02-09 21:55:00,